This is the latest recevied weather packets stored in our database for station/object IU3NMQ-10. If no packets are shown the sender has not sent any weather packets the latest 10 day(s).
| Time | Temp. | Humidity | Pressure | Rain* | Wind** | Luminosity | Snow |
|---|---|---|---|---|---|---|---|
| 1788097689 | 34.44° C | 42% | 1010.3 hPa | - | - | - | - |
| 1788096789 | 35° C | 41% | 1010.4 hPa | - | - | - | - |
| 1788095889 | 35° C | 41% | 1010.5 hPa | - | - | - | - |
| 1788094988 | 35° C | 42% | 1010.7 hPa | - | - | - | - |
| 1788094088 | 35.56° C | 41% | 1010.7 hPa | - | - | - | - |
| 1788093188 | 35.56° C | 41% | 1010.8 hPa | - | - | - | - |
| 1788092288 | 35.56° C | 42% | 1010.8 hPa | - | - | - | - |
| 1788091388 | 35.56° C | 41% | 1010.8 hPa | - | - | - | - |
| 1788090488 | 35.56° C | 41% | 1010.9 hPa | - | - | - | - |
| 1788089588 | 35.56° C | 44% | 1010.9 hPa | - | - | - | - |
| 1788088688 | 35° C | 45% | 1011 hPa | - | - | - | - |
| 1788087788 | 35° C | 44% | 1011 hPa | - | - | - | - |
| 1788086887 | 35° C | 47% | 1011.2 hPa | - | - | - | - |
| 1788085987 | 34.44° C | 47% | 1011.4 hPa | - | - | - | - |
| 1788085087 | 33.89° C | 48% | 1011.5 hPa | - | - | - | - |
| 1788084187 | 33.33° C | 48% | 1011.8 hPa | - | - | - | - |
| 1788083287 | 32.78° C | 49% | 1011.9 hPa | - | - | - | - |
| 1788082387 | 32.78° C | 51% | 1011.9 hPa | - | - | - | - |
| 1788081487 | 32.22° C | 51% | 1012 hPa | - | - | - | - |
| 1788080587 | 31.67° C | 52% | 1012.1 hPa | - | - | - | - |
| 1788079686 | 31.67° C | 54% | 1012 hPa | - | - | - | - |
| 1788078786 | 31.11° C | 54% | 1011.9 hPa | - | - | - | - |
| 1788077886 | 30.56° C | 58% | 1012 hPa | - | - | - | - |
| 1788076986 | 30° C | 60% | 1012 hPa | - | - | - | - |
| 1788076086 | 29.44° C | 65% | 1011.9 hPa | - | - | - | - |
* Rain since midnight (hover to see other rain measurements)
** Current wind speed in m/s (hover to see current wind gust speed)